sat.trackr.live / text

‹ back to catalog

UNKNOWN

NORAD 81390

UNKNOWN UNKNOWN UNKNOWN

§ Identity

Operator
Country
Launch date
Launch site
Launch vehicle
Mass (kg)
RCS (m²)

External: N2YO · Heavens-Above

§ Orbital elements

Epoch: 2026-05-20T00:28:20.031456Z

Period
116.54 min
Inclination
103.1041°
Eccentricity
0.0167263
Mean motion
12.35583938 rev/d
Perigee alt
1,393.2 km
Apogee alt
1,657.6 km
Semi-major
7,903.5 km
B*
-1.1522e-3
RAAN
44.2533°
Arg perigee
228.7021°
Mean anomaly
129.9531°
Rev number
51,964

§ Raw data

UNKNOWN1 81390U          26140.01967629 -.00000203  00000+0 -11522-2 0  99932 81390 103.1041  44.2533 0167263 228.7021 129.9531 12.35583938519643

JSON: /api/v1/satellites/81390 · /tle

For live sub-satellite position, see the globe view (requires WebGL).

§ Visibility from observer

Set your observer location to see the next 7 days of passes ≥ 10°. The values pass through the URL so the page stays shareable.

No JS? Fill the form by hand. The geolocation button needs JavaScript.